Bangor, ME

4:32 PM EDT on May 25, 2017 (GMT -0400)
Bangor International

Weather History for KBGR - October, 2013

Change the Weather History Date:

Wednesday, October 16, 2013

  Actual Average Record
Temperature  
Mean Temperature 56 °F 47 °F  
Max Temperature 61 °F 58 °F 86 °F (1968)
Min Temperature 50 °F 37 °F 19 °F (1939)
Degree Days  
Heating Degree Days 9 18  
Month to date heating degree days 159 244  
Since 1 July heating degree days 393 516  
Cooling Degree Days 0 0  
Month to date cooling degree days 0 0  
Year to date cooling degree days 355 317  
Growing Degree Days 6 (Base 50)    
Moisture  
Dew Point 52 °F    
Average Humidity 80    
Maximum Humidity 96    
Minimum Humidity 64    
Precipitation  
Precipitation 0.01 in 0.13 in 2.03 in (1943)
Month to date precipitation 0.51 2.18  
Year to date precipitation 32.86 32.26  
Snow  
Snow 0.00 in 0.00 in 0.00 in (2002)
Month to date snowfall 0.0 0.0  
Since 1 July snowfall 0.0 0.0  
Since 1 September snowfall 0.0 0.0  
Snow Depth 0.00 in    
Sea Level Pressure  
Sea Level Pressure 30.06 in    
Wind  
Wind Speed 3 mph (SE)    
Max Wind Speed 16 mph    
Max Gust Speed 21 mph    
Visibility 7 miles    
Events      
T = Trace of Precipitation, MM = Missing Value Source: NWS Daily Summary

Daily Weather History Graph

Daily Weather History Graph

Search for Another Location

Airport or City:

Trip Planner

Search our weather history database for the weather conditions in past years. The results will help you decide how hot, cold, wet, or windy it might be!

Date:

Astronomy

Oct. 16, 2013 Rise Set
Actual Time 6:52 AM EDT 5:48 PM EDT
Civil Twilight 6:22 AM EDT 6:18 PM EDT
Nautical Twilight 5:48 AM EDT 6:51 PM EDT
Astronomical Twilight 5:14 AM EDT 7:25 PM EDT
Moon 4:30 PM EDT (10/16) 4:10 AM EDT (10/16)
Length of Visible Light 11h 55m
Length of Day
10h 56m
Waxing Gibbous, 94% of the Moon is Illuminated
Oct 16
Waxing Gibbous
Oct 18
Full
Oct 26
Last Quarter
Nov 3
New
Nov 10
First Quarter

Hourly Weather History & Observations

Time (EDT) Temp. Dew Point Humidity Pressure Visibility Wind Dir Wind Speed Gust Speed Precip Events Conditions
12:53 AM 51.1 °F 48.9 °F 92% 30.22 in 10.0 mi Calm Calm - N/A   Overcast
1:53 AM 51.1 °F 48.9 °F 92% 30.20 in 10.0 mi Calm Calm - N/A   Overcast
2:53 AM 52.0 °F 50.0 °F 93% 30.19 in 10.0 mi Calm Calm - N/A   Overcast
3:53 AM 52.0 °F 48.9 °F 89% 30.19 in 10.0 mi Calm Calm - N/A   Overcast
4:53 AM 52.0 °F 48.9 °F 89% 30.18 in 10.0 mi Calm Calm - N/A   Overcast
5:53 AM 52.0 °F 50.0 °F 93% 30.19 in 10.0 mi Calm Calm - N/A   Overcast
6:21 AM 53.6 °F 50.0 °F 88% 30.19 in 10.0 mi Calm Calm - N/A   Overcast
6:53 AM 53.1 °F 50.0 °F 89% 30.19 in 10.0 mi Calm Calm - N/A   Overcast
7:53 AM 53.1 °F 50.0 °F 89% 30.18 in 10.0 mi Calm Calm - N/A   Mostly Cloudy
8:53 AM 55.0 °F 51.1 °F 86% 30.17 in 10.0 mi East 5.8 mph - N/A   Mostly Cloudy
9:53 AM 57.0 °F 50.0 °F 77% 30.16 in 10.0 mi SE 8.1 mph - N/A   Mostly Cloudy
10:53 AM 57.9 °F 48.9 °F 72% 30.14 in 10.0 mi SE 12.7 mph 18.4 mph N/A   Mostly Cloudy
11:53 AM 59.0 °F 48.0 °F 67% 30.12 in 10.0 mi SSE 9.2 mph - N/A   Mostly Cloudy
12:53 PM 61.0 °F 48.9 °F 64% 30.09 in 10.0 mi SSE 10.4 mph - N/A   Mostly Cloudy
1:20 PM 60.8 °F 48.2 °F 63% 30.08 in 10.0 mi SE 10.4 mph - N/A   Mostly Cloudy
1:37 PM 60.8 °F 48.2 °F 63% 30.07 in 10.0 mi SSE 6.9 mph - N/A   Overcast
1:53 PM 60.1 °F 50.0 °F 69% 30.06 in 10.0 mi SE 9.2 mph - N/A   Overcast
2:46 PM 59.0 °F 51.8 °F 77% 30.05 in 10.0 mi SE 10.4 mph - N/A   Overcast
2:53 PM 59.0 °F 51.1 °F 75% 30.05 in 10.0 mi SSE 9.2 mph - N/A   Overcast
3:53 PM 57.0 °F 53.1 °F 87% 30.03 in 8.0 mi ESE 5.8 mph - 0.00 in   Light Drizzle
4:11 PM 57.2 °F 53.6 °F 88% 30.03 in 10.0 mi ESE 4.6 mph - 0.00 in   Overcast
4:35 PM 57.2 °F 53.6 °F 88% 30.02 in 3.0 mi ESE 4.6 mph - 0.00 in   Overcast
4:44 PM 55.4 °F 53.6 °F 94% 30.01 in 2.5 mi ESE 6.9 mph - 0.00 in   Light Drizzle
4:50 PM 55.4 °F 53.6 °F 94% 30.01 in 3.0 mi SE 4.6 mph - 0.00 in   Light Drizzle
4:53 PM 55.9 °F 53.1 °F 90% 30.01 in 4.0 mi SE 5.8 mph - 0.00 in   Light Drizzle
5:18 PM 55.4 °F 53.6 °F 94% 30.01 in 3.0 mi SE 5.8 mph - 0.00 in   Light Drizzle
5:22 PM 55.4 °F 53.6 °F 94% 30.01 in 2.5 mi SE 5.8 mph - 0.00 in   Light Drizzle
5:53 PM 55.0 °F 54.0 °F 96% 29.99 in 2.0 mi ESE 3.5 mph - 0.00 in   Light Drizzle
5:57 PM 55.4 °F 53.6 °F 94% 29.99 in 3.0 mi Calm Calm - 0.00 in   Light Drizzle
6:44 PM 55.4 °F 53.6 °F 94% 29.99 in 2.5 mi Calm Calm - 0.00 in   Light Drizzle
6:53 PM 55.0 °F 54.0 °F 96% 29.99 in 2.0 mi Calm Calm - 0.00 in   Light Drizzle
7:22 PM 55.4 °F 53.6 °F 94% 29.97 in 3.0 mi East 3.5 mph - 0.00 in   Light Drizzle
7:53 PM 55.0 °F 54.0 °F 96% 29.96 in 4.0 mi Calm Calm - 0.01 in   Light Drizzle
8:53 PM 55.0 °F 53.1 °F 93% 29.96 in 7.0 mi Calm Calm - 0.00 in   Overcast
9:53 PM 55.0 °F 54.0 °F 96% 29.92 in 4.0 mi North 4.6 mph - N/A   Overcast
10:53 PM 55.0 °F 53.1 °F 93% 29.91 in 2.5 mi Calm Calm - 0.00 in   Light Drizzle
11:16 PM 55.4 °F 53.6 °F 94% 29.91 in 2.5 mi Calm Calm - 0.00 in   Light Drizzle
11:53 PM 55.0 °F 53.1 °F 93% 29.89 in 2.5 mi Calm Calm - 0.00 in   Overcast